TimeEST,TemperatureF,Dew PointF,Humidity,Sea Level PressureIn,VisibilityMPH,Wind Direction,Wind SpeedMPH,Gust SpeedMPH,PrecipitationIn,Events,Conditions,WindDirDegrees,DateUTC
12:55 AM,67.3,67.3,100,30.04,2.0,Calm,Calm,-,N/A,,Partly Cloudy,0,2012-12-09 05:55:00
12:56 AM,68.0,68.0,100,30.04,1.8,Calm,Calm,-,N/A,,Clear,0,2012-12-09 05:56:00
12:58 AM,66.2,66.2,100,30.04,1.2,Calm,Calm,-,N/A,,Clear,0,2012-12-09 05:58:00
12:59 AM,66.2,66.2,100,30.04,1.2,Calm,Calm,-,N/A,,Clear,0,2012-12-09 05:59:00
1:00 AM,66.2,66.2,100,30.04,1.0,Calm,Calm,-,N/A,,Clear,0,2012-12-09 06:00:00
1:01 AM,66.2,66.2,100,30.04,1.0,Calm,Calm,-,N/A,,Clear,0,2012-12-09 06:01:00
1:03 AM,66.2,66.2,100,30.04,1.2,Calm,Calm,-,N/A,,Partly Cloudy,0,2012-12-09 06:03:00
1:05 AM,66.2,66.2,100,30.04,1.5,Calm,Calm,-,N/A,,Partly Cloudy,0,2012-12-09 06:05:00
1:06 AM,66.2,66.2,100,30.04,1.8,Calm,Calm,-,N/A,,Partly Cloudy,0,2012-12-09 06:06:00
1:07 AM,66.2,66.2,100,30.04,2.0,Calm,Calm,-,N/A,,Scattered Clouds,0,2012-12-09 06:07:00
1:09 AM,66.2,66.2,100,30.04,3.0,Calm,Calm,-,N/A,,Scattered Clouds,0,2012-12-09 06:09:00
1:13 AM,66.2,66.2,100,30.04,4.0,Calm,Calm,-,N/A,,Mostly Cloudy,0,2012-12-09 06:13:00
1:16 AM,66.2,66.2,100,30.04,3.0,Calm,Calm,-,N/A,,Mostly Cloudy,0,2012-12-09 06:16:00
1:18 AM,66.2,66.2,100,30.04,1.8,Calm,Calm,-,N/A,,Mostly Cloudy,0,2012-12-09 06:18:00
1:21 AM,66.2,66.2,100,30.04,1.5,Calm,Calm,-,N/A,,Mostly Cloudy,0,2012-12-09 06:21:00
1:23 AM,66.2,66.2,100,30.04,1.5,Calm,Calm,-,N/A,,Mostly Cloudy,0,2012-12-09 06:23:00
1:28 AM,66.2,66.2,100,30.04,2.0,Calm,Calm,-,N/A,,Mostly Cloudy,0,2012-12-09 06:28:00
1:31 AM,66.2,66.2,100,30.04,2.5,Calm,Calm,-,N/A,,Mostly Cloudy,0,2012-12-09 06:31:00
1:34 AM,66.2,66.2,100,30.04,2.0,Calm,Calm,-,N/A,,Mostly Cloudy,0,2012-12-09 06:34:00
1:39 AM,66.2,66.2,100,30.04,1.8,Calm,Calm,-,N/A,,Mostly Cloudy,0,2012-12-09 06:39:00
1:40 AM,66.2,66.2,100,30.04,1.2,Calm,Calm,-,N/A,,Mostly Cloudy,0,2012-12-09 06:40:00
1:41 AM,66.2,66.2,100,30.04,1.0,Calm,Calm,-,N/A,,Mist,0,2012-12-09 06:41:00
1:42 AM,66.2,66.2,100,30.04,0.8,Calm,Calm,-,N/A,,Mist,0,2012-12-09 06:42:00
1:44 AM,66.2,66.2,100,30.04,0.5,Calm,Calm,-,N/A,Fog,Fog,0,2012-12-09 06:44:00
1:47 AM,66.2,66.2,100,30.04,0.5,Calm,Calm,-,N/A,Fog,Fog,0,2012-12-09 06:47:00
1:48 AM,66.2,66.2,100,30.04,0.2,Calm,Calm,-,N/A,Fog,Fog,0,2012-12-09 06:48:00
1:50 AM,66.2,66.2,100,30.04,0.5,Calm,Calm,-,N/A,Fog,Fog,0,2012-12-09 06:50:00
1:55 AM,65.8,65.8,100,30.04,0.5,Calm,Calm,-,N/A,Fog,Fog,0,2012-12-09 06:55:00
2:00 AM,66.2,66.2,100,30.04,0.2,Calm,Calm,-,N/A,Fog,Fog,0,2012-12-09 07:00:00
2:02 AM,66.2,66.2,100,30.04,0.5,Calm,Calm,-,N/A,Fog,Fog,0,2012-12-09 07:02:00
2:14 AM,64.4,64.4,100,30.04,0.2,Calm,Calm,-,N/A,Fog,Fog,0,2012-12-09 07:14:00
2:26 AM,64.4,64.4,100,30.03,0.2,Calm,Calm,-,N/A,Fog,Fog,0,2012-12-09 07:26:00
2:36 AM,64.4,64.4,100,30.03,0.2,Calm,Calm,-,N/A,Fog,Fog,0,2012-12-09 07:36:00
2:55 AM,64.0,64.0,100,30.03,0.2,Calm,Calm,-,N/A,Fog,Fog,0,2012-12-09 07:55:00
3:55 AM,62.2,62.2,100,30.03,0.2,Calm,Calm,-,N/A,Fog,Fog,0,2012-12-09 08:55:00
4:09 AM,62.6,62.6,100,30.03,0.2,Calm,Calm,-,N/A,Fog,Fog,0,2012-12-09 09:09:00
4:32 AM,62.6,62.6,100,30.03,0.2,Calm,Calm,-,N/A,Fog,Fog,0,2012-12-09 09:32:00
4:55 AM,62.4,62.4,100,30.03,0.2,Calm,Calm,-,N/A,Fog,Fog,0,2012-12-09 09:55:00
4:56 AM,62.6,62.6,100,30.03,0.2,Calm,Calm,-,N/A,Fog,Fog,0,2012-12-09 09:56:00
4:59 AM,62.6,62.6,100,30.03,0.2,Calm,Calm,-,N/A,Fog,Fog,0,2012-12-09 09:59:00
5:03 AM,62.6,62.6,100,30.03,0.5,Calm,Calm,-,N/A,Fog,Fog,0,2012-12-09 10:03:00
5:05 AM,62.6,62.6,100,30.03,0.5,Calm,Calm,-,N/A,Fog,Fog,0,2012-12-09 10:05:00
5:13 AM,62.6,62.6,100,30.03,0.5,Calm,Calm,-,N/A,Fog,Fog,0,2012-12-09 10:13:00
5:14 AM,62.6,62.6,100,30.03,0.2,ESE,3.5,-,N/A,Fog,Fog,120,2012-12-09 10:14:00
5:21 AM,62.6,62.6,100,30.04,0.2,Calm,Calm,-,N/A,Fog,Fog,0,2012-12-09 10:21:00
5:29 AM,62.6,62.6,100,30.04,0.2,Calm,Calm,-,N/A,Fog,Fog,0,2012-12-09 10:29:00
5:33 AM,64.4,64.4,100,30.04,0.2,Calm,Calm,-,N/A,Fog,Fog,0,2012-12-09 10:33:00
5:47 AM,64.4,64.4,100,30.04,0.2,Calm,Calm,-,N/A,Fog,Fog,0,2012-12-09 10:47:00
5:55 AM,64.2,64.2,100,30.04,0.2,Calm,Calm,-,N/A,Fog,Fog,0,2012-12-09 10:55:00
6:10 AM,64.4,64.4,100,30.05,0.5,Calm,Calm,-,N/A,Fog,Fog,0,2012-12-09 11:10:00
6:24 AM,64.4,64.4,100,30.05,0.5,Calm,Calm,-,N/A,Fog,Fog,0,2012-12-09 11:24:00
6:26 AM,64.4,64.4,100,30.06,0.5,Calm,Calm,-,N/A,Fog,Fog,0,2012-12-09 11:26:00
6:30 AM,64.4,64.4,100,30.06,0.5,Calm,Calm,-,N/A,Fog,Fog,0,2012-12-09 11:30:00
6:32 AM,64.4,64.4,100,30.06,0.8,Calm,Calm,-,N/A,,Overcast,0,2012-12-09 11:32:00
6:34 AM,64.4,64.4,100,30.06,0.8,Calm,Calm,-,N/A,,Overcast,0,2012-12-09 11:34:00
6:43 AM,64.4,64.4,100,30.06,0.5,Calm,Calm,-,N/A,Fog,Fog,0,2012-12-09 11:43:00
6:44 AM,64.4,64.4,100,30.06,0.5,Calm,Calm,-,N/A,Fog,Fog,0,2012-12-09 11:44:00
6:48 AM,64.4,64.4,100,30.06,0.2,Calm,Calm,-,N/A,Fog,Fog,0,2012-12-09 11:48:00
6:55 AM,64.8,64.8,100,30.06,0.2,Calm,Calm,-,N/A,Fog,Fog,0,2012-12-09 11:55:00
7:55 AM,66.4,66.4,100,30.07,0.2,Calm,Calm,-,N/A,Fog,Fog,0,2012-12-09 12:55:00
8:48 AM,66.2,66.2,100,30.10,0.2,Calm,Calm,-,N/A,Fog,Fog,0,2012-12-09 13:48:00
8:50 AM,68.0,68.0,100,30.10,0.2,Calm,Calm,-,N/A,Fog,Fog,0,2012-12-09 13:50:00
8:51 AM,68.0,68.0,100,30.10,0.2,Calm,Calm,-,N/A,Fog,Fog,0,2012-12-09 13:51:00
8:52 AM,68.0,68.0,100,30.10,0.2,Calm,Calm,-,N/A,Fog,Fog,0,2012-12-09 13:52:00
8:54 AM,68.0,68.0,100,30.10,0.5,Calm,Calm,-,N/A,Fog,Fog,0,2012-12-09 13:54:00
8:55 AM,67.3,67.3,100,30.10,0.5,Calm,Calm,-,N/A,Fog,Fog,0,2012-12-09 13:55:00
9:02 AM,68.0,68.0,100,30.10,0.5,Calm,Calm,-,N/A,Fog,Fog,0,2012-12-09 14:02:00
9:04 AM,68.0,68.0,100,30.10,0.5,Calm,Calm,-,N/A,Fog,Fog,0,2012-12-09 14:04:00
9:07 AM,68.0,68.0,100,30.10,0.8,Calm,Calm,-,N/A,,Mist,0,2012-12-09 14:07:00
9:09 AM,68.0,68.0,100,30.10,1.0,Calm,Calm,-,N/A,,Mist,0,2012-12-09 14:09:00
9:10 AM,68.0,68.0,100,30.10,1.5,Calm,Calm,-,N/A,,Overcast,0,2012-12-09 14:10:00
9:11 AM,68.0,68.0,100,30.10,2.5,Calm,Calm,-,N/A,,Overcast,0,2012-12-09 14:11:00
9:12 AM,68.0,68.0,100,30.10,4.0,Calm,Calm,-,N/A,,Overcast,0,2012-12-09 14:12:00
9:46 AM,69.8,69.8,100,30.11,2.5,Calm,Calm,-,N/A,,Overcast,0,2012-12-09 14:46:00
9:49 AM,69.8,69.8,100,30.11,1.8,Calm,Calm,-,N/A,,Overcast,0,2012-12-09 14:49:00
9:55 AM,69.3,69.3,100,30.11,1.8,Calm,Calm,-,N/A,,Overcast,0,2012-12-09 14:55:00
9:57 AM,69.8,69.8,100,30.11,2.0,Calm,Calm,-,N/A,,Overcast,0,2012-12-09 14:57:00
10:00 AM,69.8,69.8,100,30.11,3.0,Calm,Calm,-,N/A,,Overcast,0,2012-12-09 15:00:00
10:06 AM,69.8,69.8,100,30.11,2.5,Calm,Calm,-,N/A,,Overcast,0,2012-12-09 15:06:00
10:09 AM,69.8,69.8,100,30.11,1.8,Calm,Calm,-,N/A,,Overcast,0,2012-12-09 15:09:00
10:18 AM,69.8,69.8,100,30.11,2.0,WNW,3.5,-,N/A,,Overcast,290,2012-12-09 15:18:00
10:24 AM,69.8,69.8,100,30.11,3.0,Calm,Calm,-,N/A,,Overcast,0,2012-12-09 15:24:00
10:51 AM,71.6,71.6,100,30.11,2.5,West,3.5,-,N/A,,Overcast,280,2012-12-09 15:51:00
10:54 AM,71.6,71.6,100,30.11,1.8,WNW,4.6,-,N/A,,Overcast,300,2012-12-09 15:54:00
10:55 AM,71.1,71.1,100,30.11,1.5,WNW,4.6,-,N/A,,Overcast,300,2012-12-09 15:55:00
11:09 AM,71.6,71.6,100,30.11,2.0,West,3.5,-,N/A,,Overcast,270,2012-12-09 16:09:00
11:13 AM,71.6,71.6,100,30.11,3.0,Calm,Calm,-,N/A,,Overcast,0,2012-12-09 16:13:00
11:20 AM,71.6,71.6,100,30.11,10.0,West,3.5,-,N/A,,Overcast,280,2012-12-09 16:20:00
11:21 AM,71.6,71.6,100,30.11,10.0,West,3.5,-,N/A,,Overcast,280,2012-12-09 16:21:00
11:34 AM,73.4,73.4,100,30.10,4.0,West,5.8,-,N/A,,Scattered Clouds,270,2012-12-09 16:34:00
11:40 AM,75.2,71.6,89,30.10,2.5,West,4.6,-,N/A,,Scattered Clouds,280,2012-12-09 16:40:00
11:47 AM,75.2,71.6,89,30.10,1.8,West,4.6,-,N/A,,Scattered Clouds,280,2012-12-09 16:47:00
11:54 AM,75.2,71.6,89,30.09,2.0,West,3.5,-,N/A,,Scattered Clouds,280,2012-12-09 16:54:00
11:55 AM,74.5,71.4,90,30.09,2.0,West,3.5,-,N/A,,Scattered Clouds,280,2012-12-09 16:55:00
11:58 AM,75.2,71.6,89,30.09,3.0,Variable,3.5,-,N/A,,Scattered Clouds,0,2012-12-09 16:58:00
12:55 PM,81.1,72.3,74,30.06,10.0,West,3.5,-,N/A,,Clear,270,2012-12-09 17:55:00
1:55 PM,78.8,70.5,76,30.04,10.0,West,4.6,-,N/A,,Clear,280,2012-12-09 18:55:00
2:55 PM,80.1,71.1,74,30.04,10.0,Calm,Calm,-,N/A,,Clear,0,2012-12-09 19:55:00
3:55 PM,79.3,70.2,73,30.03,10.0,Variable,3.5,-,N/A,,Clear,0,2012-12-09 20:55:00
4:55 PM,77.2,68.9,76,30.03,10.0,NNW,3.5,-,N/A,,Clear,330,2012-12-09 21:55:00
5:55 PM,71.6,68.4,89,30.04,10.0,NNW,4.6,-,N/A,,Clear,330,2012-12-09 22:55:00
6:55 PM,69.1,68.2,97,30.05,10.0,North,5.8,-,N/A,,Clear,350,2012-12-09 23:55:00
7:55 PM,67.8,67.5,99,30.05,10.0,North,6.9,-,N/A,,Clear,350,2012-12-10 00:55:00
8:55 PM,66.0,65.8,99,30.06,10.0,Calm,Calm,-,N/A,,Clear,0,2012-12-10 01:55:00
9:55 PM,63.1,62.8,99,30.05,9.0,Calm,Calm,-,N/A,,Clear,0,2012-12-10 02:55:00
10:04 PM,62.6,62.6,100,30.05,4.0,Calm,Calm,-,N/A,,Clear,0,2012-12-10 03:04:00
10:05 PM,62.6,62.6,100,30.05,4.0,Calm,Calm,-,N/A,,Clear,0,2012-12-10 03:05:00
10:48 PM,62.6,60.8,94,30.05,8.0,Calm,Calm,-,N/A,,Clear,0,2012-12-10 03:48:00
10:55 PM,61.7,61.5,99,30.05,6.0,Calm,Calm,-,N/A,,Clear,0,2012-12-10 03:55:00
10:56 PM,62.6,60.8,94,30.05,6.0,Calm,Calm,-,N/A,,Clear,0,2012-12-10 03:56:00
11:42 PM,62.6,62.6,100,30.05,4.0,North,3.5,-,N/A,,Scattered Clouds,350,2012-12-10 04:42:00
11:43 PM,62.6,62.6,100,30.05,4.0,North,3.5,-,N/A,,Mostly Cloudy,350,2012-12-10 04:43:00
11:48 PM,62.6,62.6,100,30.05,3.0,North,3.5,-,N/A,,Mostly Cloudy,360,2012-12-10 04:48:00
11:52 PM,64.4,64.4,100,30.05,2.5,North,3.5,-,N/A,,Mostly Cloudy,360,2012-12-10 04:52:00
11:55 PM,63.7,63.7,100,30.05,1.8,North,3.5,-,N/A,,Mostly Cloudy,350,2012-12-10 04:55:00
11:56 PM,64.4,64.4,100,30.05,1.2,North,4.6,-,N/A,,Mostly Cloudy,350,2012-12-10 04:56:00
11:57 PM,64.4,64.4,100,30.05,1.0,North,4.6,-,N/A,,Mist,360,2012-12-10 04:57:00
11:59 PM,64.4,64.4,100,30.05,0.8,Calm,Calm,-,N/A,,Mist,0,2012-12-10 04:59:00